Regional Weather Roundup
Issued by NWS

Home | Current Version | Previous Version | Text Only | Print | Product List | Glossary Off
Versions: 1 2 3 4 5 6 7 8 9 10 11 12 13 14 15 16 17 18 19 20 21 22 23 24 25 26 27 28 29 30 31 32 33 34 35 36 37 38 39 40 41 42 43 44 45 46 47 48 49 50

000
ASUS43 KFSD 280102
RWRSD

WEATHER ROUNDUP FOR SOUTH DAKOTA
NATIONAL WEATHER SERVICE SIOUX FALLS SD
800 PM CDT MON APR 27 2015

NOTE: "FAIR" INDICATES FEW OR NO CLOUDS BELOW 12,000 FEET WITH NO
SIGNIFICANT WEATHER AND/OR OBSTRUCTIONS TO VISIBILITY.


SDZ001>005-009-010-012>017-280200-
NORTHWEST AND NORTH CENTRAL SOUTH DAKOTA

CITY           SKY/WX    TMP DP  RH WIND       PRES   REMARKS
BUFFALO          N/A     46  36  68 W6        30.27R
FAITH            N/A     48  39  71 NW12      30.30R
MOBRIDGE       LGT RAIN  50  45  83 N14       30.26R
$$

SDZ012>016-024>037-041>051-057-063-072>074-280200-
SOUTHWEST AND SOUTH CENTRAL SOUTH DAKOTA

CITY           SKY/WX    TMP DP  RH WIND       PRES   REMARKS
RAPID CTY ARPT LGT RAIN  47  40  76 N8        30.31R
PIERRE         LGT RAIN  53  42  66 NW21      30.24R
CUSTER         CLOUDY    43  39  86 W3        30.29S
ELLSWORTH AFB  CLOUDY    47  40  77 N12       30.30
PHILIP         CLOUDY    51  40  65 N15       30.29R
PINE RIDGE     PTCLDY    52  40  63 N12       30.28R
WINNER         FAIR      63  38  39 N22G28    30.21R
$$

SDZ004>011-016>023-039-040-280200-
NORTHEAST SOUTH DAKOTA

CITY           SKY/WX    TMP DP  RH WIND       PRES   REMARKS
ABERDEEN       PTCLDY    63  42  46 N17       30.17R
WATERTOWN      PTCLDY    61  27  27 N7        30.17R
BROOKINGS      CLEAR     63  25  23 N6        30.18R
SISSETON         N/A     66  23  19 E3        30.14S
$$

SDZ017-020-022-023-036>040-048>070-280200-
SOUTHEAST SOUTH DAKOTA

CITY           SKY/WX    TMP DP  RH WIND       PRES   REMARKS
SIOUX FALLS    MOCLDY    61  28  28 N3        30.15S
HURON          CLEAR     65  23  20 NE6       30.15S
MITCHELL       PTCLDY    68  31  25 NE3       30.16S
YANKTON        PTCLDY    64  28  25 N7        30.14S
$$

ABBREVIATIONS USED IN REMARKS
   TC - TEMPERATURE IN CELSIUS
  WCI - WIND CHILL INDEX
   HX - HEAT INDEX
  VSB - VISIBILITY




USA.gov is the U.S. government's official web portal to all federal, state and local government web resources and services.